Regional Weather Roundup
Issued by NWS

Home | Current Version | Previous Version | Text Only | Print | Product List | Glossary Off
Versions: 1 2 3 4 5 6 7 8 9 10 11 12 13 14 15 16 17 18 19 20 21 22 23 24 25 26 27 28 29 30 31 32 33 34 35 36 37 38 39 40 41 42 43 44 45 46 47 48 49 50

500
ASUS43 KBIS 250902
RWRND

NORTH DAKOTA REGIONAL WEATHER ROUNDUP
NATIONAL WEATHER SERVICE BISMARCK ND
300 AM CST SUN FEB 25 2018

NOTE: "FAIR" INDICATES FEW OR NO CLOUDS BELOW 12,000 FEET WITH NO
SIGNIFICANT WEATHER AND/OR OBSTRUCTIONS TO VISIBILITY.


NDZ001>003-009>011-017-251000-
NORTHWEST NORTH DAKOTA

CITY           SKY/WX    TMP DP  RH WIND       PRES   REMARKS
WILLISTON      CLOUDY    22  14  71 W10       29.61S WCI  11
MINOT          PTCLDY    22  17  81 W20       29.52S WCI   7
MINOT AFB      PTCLDY    21  16  81 NW16        N/A  WCI   7
$$

NDZ018>021-031>035-040>046-251000-
SOUTHWEST NORTH DAKOTA

CITY           SKY/WX    TMP DP  RH WIND       PRES   REMARKS
BISMARCK       CLOUDY    17  13  84 W12       29.59S WCI   4
DICKINSON      MOCLDY    18  15  88 W18       29.59R WCI   2
GARRISON         N/A     20  17  88 W13       29.54S WCI   7
HETTINGER ARPT CLOUDY    16  11  80 W18       29.65R WCI   0
$$

NDZ004>008-012>016-024-026-027-054-251000-
NORTHEAST NORTH DAKOTA

CITY           SKY/WX    TMP DP  RH WIND       PRES   REMARKS
GRAND FORKS    CLOUDY    17  15  92 W3        29.49F
GRND FRKS AFB  FLURRIES  14  10  86 W7        29.49F WCI   3
DEVILS LAKE    CLOUDY    13  10  88 W9        29.49F WCI   1
$$

NDZ022-023-025-028>030-036>039-047>053-251000-
SOUTHEAST NORTH DAKOTA

CITY           SKY/WX    TMP DP  RH WIND       PRES   REMARKS
FARGO          CLOUDY    17  14  88 W8        29.52F WCI   7
JAMESTOWN      CLOUDY    13   8  81 W13       29.51F WCI  -2
$$





USA.gov is the U.S. government's official web portal to all federal, state and local government web resources and services.